| time (UTC) | temp F | wind direction | speed knots | gust knots | rain 1hr in | rain 24hr in | rain mn in | humidity % | barometer mb |
| 20260510073012 | 31 | 180 | 3.5 | 3.5 | 0.00 | 0.00 | 0.00 | 66 | 88.8 |
| 20260510072011 | 31 | 180 | 3.5 | 3.5 | 0.00 | 0.00 | 0.00 | 66 | 88.8 |
| 20260510071011 | 31 | 158 | 3.5 | 3.5 | 0.00 | 0.00 | 0.00 | 66 | 88.8 |
| 20260510070012 | 31 | 180 | 2.6 | 2.6 | 0.00 | 0.00 | 0.00 | 65 | 88.8 |
| 20260510065012 | 32 | 158 | 3.5 | 3.5 | 0.00 | 0.00 | 0.00 | 65 | 88.8 |
| 20260510064011 | 33 | 158 | 2.6 | 2.6 | 0.00 | 0.00 | 0.00 | 64 | 88.8 |
| 20260510063013 | 34 | 135 | 2.6 | 2.6 | 0.00 | 0.00 | 0.00 | 63 | 88.8 |
| 20260510062012 | 36 | 112 | 4.3 | 4.3 | 0.00 | 0.00 | 0.00 | 63 | 88.8 |
| 20260510061011 | 36 | 112 | 3.5 | 3.5 | 0.00 | 0.00 | 0.00 | 61 | 88.8 |
| 20260510060012 | 36 | 112 | 4.3 | 4.3 | 0.00 | 0.00 | 0.00 | 61 | 88.8 |
| 20260510055011 | 37 | 112 | 3.5 | 3.5 | 0.00 | 0.00 | 0.00 | 60 | 88.8 |
| 20260510054011 | 36 | 112 | 4.3 | 4.3 | 0.00 | 0.00 | 0.00 | 60 | 88.8 |
| 20260510053012 | 36 | 112 | 5.2 | 5.2 | 0.00 | 0.00 | 0.00 | 60 | 88.8 |
| 20260510052011 | 34 | 90 | 5.2 | 5.2 | 0.00 | 0.00 | 0.00 | 61 | 88.8 |
| 20260510050012 | 31 | 45 | 3.5 | 3.5 | 0.00 | 0.00 | 0.00 | 63 | 88.8 |
| 20260510045011 | 31 | 22 | 0.0 | 0.0 | 0.00 | 0.00 | 0.00 | 59 | 88.8 |
| 20260510044011 | 31 | 0 | 0.0 | 0.0 | 0.00 | 0.00 | 0.00 | 58 | 88.8 |
| 20260510043012 | 32 | 0 | 0.0 | 0.0 | 0.00 | 0.00 | 0.00 | 58 | 88.8 |
| 20260510042012 | 32 | 22 | 0.0 | 0.0 | 0.00 | 0.00 | 0.00 | 58 | 88.8 |
| 20260510041011 | 33 | 22 | 0.0 | 0.0 | 0.00 | 0.00 | 0.00 | 56 | 88.8 |
| 20260510040012 | 34 | 22 | 0.0 | 0.0 | 0.00 | 0.00 | 0.00 | 56 | 88.8 |
| 20260510035012 | 34 | 45 | 0.0 | 0.0 | 0.00 | 0.00 | 0.00 | 56 | 88.8 |
| 20260510034011 | 35 | 45 | 0.0 | 0.0 | 0.00 | 0.00 | 0.00 | 56 | 88.8 |
| 20260510033012 | 36 | 45 | 0.0 | 0.0 | 0.00 | 0.00 | 0.00 | 55 | 88.8 |
| 20260510032012 | 38 | 45 | 0.0 | 0.0 | 0.00 | 0.00 | 0.00 | 55 | 88.8 |
| 20260510031011 | 40 | 45 | 0.0 | 0.0 | 0.00 | 0.00 | 0.00 | 53 | 88.8 |
| 20260510030012 | 43 | 45 | 0.0 | 0.0 | 0.00 | 0.00 | 0.00 | 52 | 88.8 |
| 20260510024012 | 47 | 45 | 4.3 | 4.3 | 0.00 | 0.00 | 0.00 | 49 | 88.8 |
| 20260510023012 | 49 | 22 | 5.2 | 5.2 | 0.00 | 0.00 | 0.00 | 46 | 88.8 |
| 20260510022012 | 50 | 22 | 5.2 | 5.2 | 0.00 | 0.00 | 0.00 | 45 | 88.8 |
| 20260510021011 | 51 | 0 | 4.3 | 4.3 | 0.00 | 0.00 | 0.00 | 44 | 88.8 |
| 20260510020011 | 53 | 22 | 3.5 | 3.5 | 0.00 | 0.00 | 0.00 | 42 | 88.8 |
| 20260510015012 | 54 | 338 | 3.5 | 3.5 | 0.00 | 0.00 | 0.00 | 40 | 88.8 |
| 20260510014011 | 54 | 0 | 4.3 | 4.3 | 0.00 | 0.00 | 0.00 | 40 | 88.8 |
| 20260510013012 | 55 | 315 | 5.2 | 5.2 | 0.00 | 0.00 | 0.00 | 40 | 88.8 |
| 20260510012012 | 57 | 338 | 7.8 | 7.8 | 0.00 | 0.00 | 0.00 | 40 | 88.8 |
| 20260510011011 | 58 | 0 | 9.6 | 9.6 | 0.00 | 0.00 | 0.00 | 39 | 88.8 |
| 20260510010011 | 58 | 292 | 4.3 | 4.3 | 0.00 | 0.00 | 0.00 | 39 | 88.8 |
| 20260510005012 | 59 | 22 | 8.7 | 8.7 | 0.00 | 0.00 | 0.00 | 39 | 88.8 |
| 20260510004011 | 58 | 0 | 7.0 | 7.0 | 0.00 | 0.00 | 0.00 | 39 | 88.8 |
| 20260510003012 | 58 | 22 | 6.1 | 6.1 | 0.00 | 0.00 | 0.00 | 39 | 88.8 |
| 20260510002012 | 59 | 0 | 9.6 | 9.6 | 0.00 | 0.00 | 0.00 | 39 | 88.8 |
| 20260510001011 | 59 | 0 | 12.2 | 12.2 | 0.00 | 0.00 | 0.00 | 37 | 88.8 |
| 20260510000011 | 58 | 338 | 7.8 | 7.8 | 0.00 | 0.00 | 0.00 | 37 | 88.8 |
| 20260509235012 | 57 | 292 | 10.4 | 10.4 | 0.00 | 0.00 | 0.00 | 38 | 88.8 |
| 20260509234012 | 56 | 22 | 13.9 | 13.9 | 0.00 | 0.00 | 0.00 | 39 | 88.8 |
| 20260509232012 | 57 | 22 | 9.6 | 9.6 | 0.00 | 0.00 | 0.00 | 38 | 88.8 |
| 20260509231012 | 57 | 338 | 6.1 | 6.1 | 0.00 | 0.00 | 0.00 | 38 | 88.8 |
| 20260509225011 | 57 | 270 | 4.3 | 4.3 | 0.00 | 0.00 | 0.00 | 37 | 88.8 |
| 20260509224012 | 56 | 315 | 8.7 | 8.7 | 0.00 | 0.00 | 0.00 | 37 | 88.8 |
| 20260509223011 | 56 | 0 | 9.6 | 9.6 | 0.00 | 0.00 | 0.00 | 38 | 88.8 |
| 20260509221012 | 57 | 22 | 4.3 | 4.3 | 0.00 | 0.00 | 0.00 | 37 | 88.8 |
| 20260509220011 | 57 | 22 | 16.5 | 16.5 | 0.00 | 0.00 | 0.00 | 37 | 88.8 |
| 20260509215012 | 58 | 338 | 6.1 | 6.1 | 0.00 | 0.00 | 0.00 | 36 | 88.8 |
| 20260509214012 | 58 | 292 | 4.3 | 4.3 | 0.00 | 0.00 | 0.00 | 37 | 88.8 |
| 20260509213011 | 57 | 270 | 7.8 | 7.8 | 0.00 | 0.00 | 0.00 | 36 | 88.8 |
| 20260509212011 | 57 | 292 | 16.5 | 16.5 | 0.00 | 0.00 | 0.00 | 37 | 88.8 |
| 20260509211011 | 57 | 0 | 7.8 | 7.8 | 0.00 | 0.00 | 0.00 | 37 | 88.8 |
| 20260509210011 | 56 | 315 | 15.6 | 15.6 | 0.00 | 0.00 | 0.00 | 38 | 88.8 |
| 20260509205011 | 56 | 0 | 3.5 | 3.5 | 0.00 | 0.00 | 0.00 | 38 | 88.8 |
| 20260509203011 | 56 | 292 | 9.6 | 9.6 | 0.00 | 0.00 | 0.00 | 38 | 88.8 |
| 20260509202012 | 56 | 22 | 7.0 | 7.0 | 0.00 | 0.00 | 0.00 | 39 | 88.8 |
| 20260509201011 | 56 | 338 | 12.2 | 12.2 | 0.00 | 0.00 | 0.00 | 39 | 88.8 |
| 20260509200012 | 56 | 0 | 12.2 | 12.2 | 0.00 | 0.00 | 0.00 | 40 | 88.8 |
| 20260509195011 | 56 | 0 | 14.8 | 14.8 | 0.00 | 0.00 | 0.00 | 38 | 88.8 |
| 20260509194012 | 55 | 22 | 13.9 | 13.9 | 0.00 | 0.00 | 0.00 | 39 | 88.8 |
| 20260509193012 | 55 | 45 | 14.8 | 14.8 | 0.00 | 0.00 | 0.00 | 39 | 88.8 |
| 20260509192011 | 55 | 22 | 13.0 | 13.0 | 0.00 | 0.00 | 0.00 | 40 | 88.8 |
| 20260509191012 | 55 | 22 | 11.3 | 11.3 | 0.00 | 0.00 | 0.00 | 39 | 88.8 |
| 20260509190011 | 54 | 315 | 7.0 | 7.0 | 0.00 | 0.00 | 0.00 | 39 | 88.8 |
| 20260509184012 | 53 | 22 | 13.0 | 13.0 | 0.00 | 0.00 | 0.00 | 40 | 88.8 |
| 20260509183012 | 53 | 22 | 13.9 | 13.9 | 0.00 | 0.00 | 0.00 | 39 | 88.8 |
| 20260509182011 | 53 | 22 | 14.8 | 14.8 | 0.00 | 0.00 | 0.00 | 40 | 88.8 |
| 20260509181012 | 53 | 0 | 11.3 | 11.3 | 0.00 | 0.00 | 0.00 | 40 | 88.8 |
| 20260509180012 | 53 | 22 | 3.5 | 3.5 | 0.00 | 0.00 | 0.00 | 41 | 88.8 |
| 20260509175012 | 52 | 338 | 12.2 | 12.2 | 0.00 | 0.00 | 0.00 | 41 | 88.8 |
| 20260509174012 | 51 | 292 | 9.6 | 9.6 | 0.00 | 0.00 | 0.00 | 40 | 88.8 |
| 20260509173012 | 51 | 22 | 7.8 | 7.8 | 0.00 | 0.00 | 0.00 | 40 | 88.8 |
| 20260509171011 | 51 | 22 | 12.2 | 12.2 | 0.00 | 0.00 | 0.00 | 40 | 88.8 |
| 20260509170012 | 50 | 22 | 6.1 | 6.1 | 0.00 | 0.00 | 0.00 | 41 | 88.8 |
| 20260509165011 | 50 | 45 | 13.0 | 13.0 | 0.00 | 0.00 | 0.00 | 40 | 88.8 |
| 20260509164011 | 50 | 45 | 8.7 | 8.7 | 0.00 | 0.00 | 0.00 | 41 | 88.8 |
| 20260509163011 | 50 | 22 | 16.5 | 16.5 | 0.00 | 0.00 | 0.00 | 42 | 88.8 |
| 20260509161012 | 49 | 45 | 5.2 | 5.2 | 0.00 | 0.00 | 0.00 | 41 | 88.8 |
| 20260509160011 | 49 | 315 | 7.8 | 7.8 | 0.00 | 0.00 | 0.00 | 41 | 88.8 |
| 20260509155012 | 50 | 338 | 9.6 | 9.6 | 0.00 | 0.00 | 0.00 | 44 | 88.8 |
| 20260509154013 | 50 | 338 | 8.7 | 8.7 | 0.00 | 0.00 | 0.00 | 45 | 88.8 |
| 20260509153012 | 51 | 0 | 7.8 | 7.8 | 0.00 | 0.00 | 0.00 | 46 | 88.8 |
| 20260509152012 | 52 | 0 | 8.7 | 8.7 | 0.00 | 0.00 | 0.00 | 48 | 88.8 |
| 20260509151012 | 53 | 338 | 7.8 | 7.8 | 0.00 | 0.00 | 0.00 | 46 | 88.8 |
| 20260509145011 | 52 | 45 | 6.1 | 6.1 | 0.00 | 0.00 | 0.00 | 46 | 88.8 |
| 20260509144012 | 52 | 22 | 5.2 | 5.2 | 0.00 | 0.00 | 0.00 | 48 | 88.8 |
| 20260509143011 | 52 | 315 | 5.2 | 5.2 | 0.00 | 0.00 | 0.00 | 49 | 88.8 |
| 20260509142012 | 51 | 22 | 6.1 | 6.1 | 0.00 | 0.00 | 0.00 | 49 | 88.8 |
| 20260509140012 | 49 | 22 | 4.3 | 4.3 | 0.00 | 0.00 | 0.00 | 51 | 88.8 |
| 20260509135011 | 49 | 22 | 4.3 | 4.3 | 0.00 | 0.00 | 0.00 | 50 | 88.8 |
| 20260509134012 | 47 | 22 | 3.5 | 3.5 | 0.00 | 0.00 | 0.00 | 53 | 88.8 |
| 20260509132012 | 44 | 338 | 2.6 | 2.6 | 0.00 | 0.00 | 0.00 | 63 | 88.8 |
| 20260509131012 | 41 | 22 | 3.5 | 3.5 | 0.00 | 0.00 | 0.00 | 68 | 88.8 |
| 20260509130011 | 36 | 0 | 2.6 | 2.6 | 0.00 | 0.00 | 0.00 | 73 | 88.8 |
| 20260509125012 | 33 | 22 | 1.7 | 1.7 | 0.00 | 0.00 | 0.00 | 75 | 88.8 |
| 20260509124012 | 29 | 338 | 3.5 | 3.5 | 0.00 | 0.00 | 0.00 | 77 | 88.8 |
| 20260509123011 | 27 | 315 | 4.3 | 4.3 | 0.00 | 0.00 | 0.00 | 79 | 88.8 |
| 20260509122011 | 25 | 338 | 0.0 | 0.0 | 0.00 | 0.00 | 0.00 | 79 | 88.8 |
| 20260509121012 | 23 | 22 | 1.7 | 1.7 | 0.00 | 0.00 | 0.00 | 81 | 88.8 |
| 20260509120011 | 22 | 338 | 0.0 | 0.0 | 0.00 | 0.00 | 0.00 | 84 | 88.8 |
| 20260509115012 | 22 | 315 | 0.0 | 0.0 | 0.00 | 0.00 | 0.00 | 84 | 88.8 |
| 20260509114012 | 21 | 338 | 3.5 | 3.5 | 0.00 | 0.00 | 0.00 | 86 | 88.8 |
| 20260509113011 | 21 | 315 | 1.7 | 1.7 | 0.00 | 0.00 | 0.00 | 88 | 88.8 |
| 20260509112011 | 21 | 90 | 0.0 | 0.0 | 0.00 | 0.00 | 0.00 | 87 | 88.8 |
| 20260509111012 | 21 | 292 | 0.0 | 0.0 | 0.00 | 0.00 | 0.00 | 87 | 88.8 |
| 20260509110012 | 21 | 292 | 0.0 | 0.0 | 0.00 | 0.00 | 0.00 | 87 | 88.8 |
| 20260509105011 | 22 | 292 | 2.6 | 2.6 | 0.00 | 0.00 | 0.00 | 88 | 88.8 |
| 20260509104012 | 22 | 292 | 0.0 | 0.0 | 0.00 | 0.00 | 0.00 | 87 | 88.8 |
| 20260509103012 | 22 | 270 | 0.0 | 0.0 | 0.00 | 0.00 | 0.00 | 86 | 88.8 |
| 20260509102012 | 23 | 315 | 0.0 | 0.0 | 0.00 | 0.00 | 0.00 | 86 | 88.8 |
| 20260509100011 | 23 | 0 | 0.0 | 0.0 | 0.00 | 0.00 | 0.00 | 84 | 88.8 |
| 20260509095011 | 24 | 315 | 0.0 | 0.0 | 0.00 | 0.00 | 0.00 | 85 | 88.8 |
| 20260509094012 | 24 | 292 | 0.0 | 0.0 | 0.00 | 0.00 | 0.00 | 84 | 88.8 |
| 20260509093012 | 25 | 338 | 0.0 | 0.0 | 0.00 | 0.00 | 0.00 | 82 | 88.8 |
| 20260509092012 | 25 | 292 | 0.0 | 0.0 | 0.00 | 0.00 | 0.00 | 82 | 88.8 |
| 20260509085012 | 26 | 338 | 1.7 | 1.7 | 0.00 | 0.00 | 0.00 | 84 | 88.8 |
| 20260509084012 | 26 | 315 | 0.0 | 0.0 | 0.00 | 0.00 | 0.00 | 84 | 88.8 |
| 20260509083011 | 27 | 270 | 0.0 | 0.0 | 0.00 | 0.00 | 0.00 | 83 | 88.8 |
| 20260509082012 | 28 | 22 | 0.0 | 0.0 | 0.00 | 0.00 | 0.00 | 83 | 88.8 |
| 20260509081012 | 29 | 45 | 0.0 | 0.0 | 0.00 | 0.00 | 0.00 | 83 | 88.8 |
| 20260509080011 | 30 | 22 | 1.7 | 1.7 | 0.00 | 0.00 | 0.00 | 84 | 88.8 |
| 20260509075011 | 30 | 22 | 3.5 | 3.5 | 0.00 | 0.00 | 0.00 | 85 | 88.8 |
| 20260509074012 | 30 | 22 | 3.5 | 3.5 | 0.00 | 0.00 | 0.00 | 86 | 88.8 |